Location: Beneden-Haastrecht
(52.0012°N, 4.7557°E)
Time: 02:45:44
(UTC+00:00)

Cosmos 2227 Rocket - Pass Details

Date: 24 October 2020
Orbit: 839 x 845 km, 71.0° (Epoch: 23 November)

Event Time Altitude Azimuth Distance (km) Brightness Sun altitude
Rises 18:04:04 0° 329° (NNW) 3,408 5.8 -15.5°
Reaches altitude 10° 18:06:32 10° 332° (NNW) 2,471 5.0 -15.9°
Maximum altitude 18:12:13 74° 57° (ENE) 882 2.1 -16.7°
Enters shadow 18:17:02 15° 142° (SE) 2,150 3.9 -17.5°
